Regional Weather Roundup
Issued by NWS Jackson, KY

Home | Current Version | Previous Version | Text Only | Print | Product List | Glossary On
Versions: 1 2 3 4 5 6 7 8 9 10 11 12 13 14 15 16 17 18 19 20 21 22 23 24 25 26 27 28 29 30 31 32 33 34 35 36 37 38 39 40 41 42 43 44 45 46 47 48 49 50
000
ASUS43 KJKL 100119
RWRJKL

EAST KENTUCKY HOURLY WEATHER ROUNDUP
NATIONAL WEATHER SERVICE JACKSON KY
900 PM EDT WED JUL 09 2014

NOTE: "FAIR" INDICATES FEW OR NO CLOUDS BELOW 12,000 FEET WITH
NO SIGNIFICANT WEATHER AND/OR OBSTRUCTIONS TO VISIBILITY.

* THESE REPORTS ARE NOT UNDER NWS QUALITY CONTROL AND MAY NOT
  REPORT WEATHER SUCH AS PRECIPITATION AND FOG.

KYZ079-080-083-085-087-088-110-112-115-119-120-100200
...EASTERN KENTUCKY...

CITY           SKY/WX    TMP DP  RH WIND       PRES   REMARKS
JACKSON        CLEAR     76  58  53 CALM      30.01R
LONDON         CLEAR     80  60  50 W3        30.02R
SOMERSET*      CLEAR     79  57  47 CALM      30.02R
MONTICELLO*    CLEAR     73  69  87 CALM      30.03R
WILLIAMSBURG*  CLEAR     75  66  73 CALM      30.02
MIDDLESBORO*   MOCLDY    76  68  77 CALM      30.02R
HARLAN APT*    MOCLDY    72  64  78 MISG      30.03R
PIKEVILLE APT* CLEAR     75  66  73 CALM      30.01R
BIG SANDY*     CLEAR     77  66  69 CALM      30.00R
MOREHEAD APT*    N/A     77  57  50 NW3       30.02R
ASHLAND*       CLEAR     73  63  68 CALM      29.96R
$$

KYZ035-036-041-042-044-050-067-078-099-100200
...CENTRAL KENTUCKY...

CITY           SKY/WX    TMP DP  RH WIND       PRES   REMARKS
MT STERLING*   CLEAR     73  63  68 CALM      30.01R
FLEMING/MASON* CLEAR     75  59  57 W3        30.00R
DANVILLE*      CLEAR     73  59  60 CALM      30.01R
RICHMOND*      CLEAR     77  57  50 CALM      29.99R
LEXINGTON      CLEAR     79  56  45 CALM      30.00R
FRANKFORT      CLEAR     75  61  61 W3        29.98R
$$

KYZ091>093-OHZ055-061-077-WVZ005-015-034-035-042-100200
...SOUTHERN OHIO/WEST VIRGINIA...

CITY           SKY/WX    TMP DP  RH WIND       PRES   REMARKS
COVINGTON      PTCLDY    75  59  57 W7        29.98R
COLUMBUS       PTCLDY    77  58  51 W6        29.95R
DAYTON         PTCLDY    75  59  57 NW7       29.99R
WILMINGTON     CLEAR     75  57  53 NW9       29.98R
HUNTINGTON     PTCLDY    78  57  48 NW6       29.96R
CHARLESTON     PTCLDY    75  67  76 N3        29.97R
PINEVILLE*     PTCLDY    73  71  94 MISG      30.07R
BECKLEY        LGT RAIN  67  63  87 E3        30.06S FOG
BLUEFIELD      PTCLDY    72  61  68 CALM      30.09R
$$

VAZ002-007-008-TNZ017-027-036-066-071-100200
...SOUTHWEST VIRGINIA/EAST TENNESSEE...

CITY           SKY/WX    TMP DP  RH WIND       PRES   REMARKS
WISE*          PTCLDY    70  61  73 CALM      30.09R
JONESVILLE*      N/A     75  68  78 CALM      30.05R
ABINGDON*      MOCLDY    74  68  81 CALM      30.06R
BRISTOL        MOCLDY    76  65  68 SW5       30.03R
KNOXVILLE      CLOUDY    70  67  90 S5        30.03R
OAK RIDGE      CLOUDY    72  68  87 S3        30.04R
CROSSVILLE     MOCLDY    71  68  90 CALM      30.07R
NASHVILLE      MOCLDY    81  67  62 VRB5      29.99R
$$

...KEY TO REMARKS...
VSB - VISIBILITY IN MILES
WCI - WIND CHILL INDEX
HX  - HEAT INDEX

$$



USA.gov is the U.S. government's official web portal to all federal, state and local government web resources and services.